• In Hungary
  • List of Countries
  • For 7 days
  • Water Temperature
  • Satellite Maps
  • Weather Map
  • News
  • Weather Widgets
  • user-avatar
    Login

    Hourly Weather Roje

    Today, 20 November, Monday

    Time Temperature Precipitation Wind Pressure Humidity
    00:00 -1°C° 0 mm 4 mps 738 mmHg 89%
    01:00 0°C° 0 mm 3 mps 738 mmHg 91%
    02:00 -1°C° 0.3 mm 4 mps 738 mmHg 91%
    03:00 -1°C° 0.3 mm 4 mps 739 mmHg 91%
    04:00 0°C° 0.3 mm 5 mps 739 mmHg 91%
    05:00 0°C° 0.7 mm 5 mps 740 mmHg 88%
    06:00 -1°C° 0.7 mm 6 mps 741 mmHg 86%
    07:00 0°C° 0 mm 7 mps 741 mmHg 83%
    08:00 0°C° 0.1 mm 7 mps 742 mmHg 80%
    09:00 0°C° 0.1 mm 7 mps 742 mmHg 77%
    10:00 0°C° 0.1 mm 7 mps 743 mmHg 74%
    11:00 0°C° 0 mm 7 mps 743 mmHg 74%
    12:00 +1°C° 0 mm 6 mps 744 mmHg 73%
    13:00 +1°C° 0 mm 6 mps 744 mmHg 72%
    14:00 0°C° 0.1 mm 5 mps 744 mmHg 73%
    15:00 0°C° 0.1 mm 5 mps 745 mmHg 75%
    16:00 0°C° 0.1 mm 4 mps 745 mmHg 77%
    17:00 -1°C° 0 mm 4 mps 745 mmHg 79%
    18:00 -1°C° 0 mm 4 mps 745 mmHg 81%
    19:00 -2°C° 0 mm 4 mps 745 mmHg 82%
    20:00 -2°C° 0 mm 4 mps 745 mmHg 84%
    21:00 -1°C° 0 mm 3 mps 746 mmHg 85%
    22:00 -1°C° 0 mm 3 mps 746 mmHg 86%
    23:00 -1°C° 0 mm 3 mps 746 mmHg 87%

    Tomorrow, 21 November, Tuesday

    Time Temperature Precipitation Wind Pressure Humidity
    00:00 -1°C° 0 mm 3 mps 746 mmHg 87%
    01:00 -1°C° 0 mm 3 mps 746 mmHg 88%
    02:00 -1°C° 0 mm 3 mps 746 mmHg 88%
    03:00 -1°C° 0 mm 3 mps 747 mmHg 88%
    04:00 -2°C° 0 mm 3 mps 747 mmHg 88%
    05:00 -2°C° 0 mm 2 mps 747 mmHg 88%
    06:00 -2°C° 0 mm 2 mps 747 mmHg 88%
    07:00 -2°C° 0 mm 2 mps 747 mmHg 88%
    08:00 -1°C° 0 mm 2 mps 747 mmHg 84%
    09:00 -1°C° 0 mm 2 mps 747 mmHg 80%
    10:00 +1°C° 0 mm 2 mps 748 mmHg 77%
    11:00 +2°C° 0 mm 2 mps 748 mmHg 75%
    12:00 +2°C° 0 mm 2 mps 748 mmHg 73%
    13:00 +2°C° 0 mm 2 mps 747 mmHg 72%
    14:00 +2°C° 0 mm 2 mps 747 mmHg 76%
    15:00 +1°C° 0 mm 2 mps 747 mmHg 80%
    16:00 +1°C° 0 mm 1 mps 747 mmHg 85%
    17:00 -1°C° 0 mm 2 mps 748 mmHg 87%
    18:00 -1°C° 0 mm 2 mps 748 mmHg 89%
    19:00 -1°C° 0 mm 2 mps 748 mmHg 91%
    20:00 -1°C° 0 mm 2 mps 748 mmHg 92%
    21:00 -1°C° 0 mm 2 mps 748 mmHg 93%
    22:00 -1°C° 0 mm 2 mps 748 mmHg 94%
    23:00 -1°C° 0 mm 2 mps 748 mmHg 94%

    Day after tomorrow, 22 November, Wednesday

    Time Temperature Precipitation Wind Pressure Humidity
    00:00 -1°C° 0 mm 2 mps 748 mmHg 94%
    01:00 -1°C° 0 mm 2 mps 748 mmHg 94%
    02:00 -1°C° 0 mm 3 mps 748 mmHg 94%
    03:00 -1°C° 0 mm 3 mps 747 mmHg 94%
    04:00 -1°C° 0 mm 3 mps 747 mmHg 94%
    05:00 -2°C° 0.2 mm 4 mps 747 mmHg 93%
    06:00 -1°C° 0.2 mm 4 mps 747 mmHg 91%
    07:00 -1°C° 0.2 mm 5 mps 746 mmHg 90%
    08:00 -1°C° 0.6 mm 5 mps 746 mmHg 89%
    09:00 -1°C° 0.6 mm 6 mps 746 mmHg 89%
    10:00 -1°C° 0.6 mm 6 mps 746 mmHg 89%
    11:00 -1°C° 0.2 mm 6 mps 746 mmHg 89%
    12:00 -1°C° 0.2 mm 6 mps 746 mmHg 90%
    13:00 -1°C° 0.2 mm 6 mps 745 mmHg 91%
    14:00 0°C° 0.1 mm 5 mps 745 mmHg 92%
    15:00 0°C° 0.1 mm 5 mps 745 mmHg 93%
    16:00 0°C° 0.1 mm 4 mps 745 mmHg 95%
    17:00 0°C° 0.1 mm 4 mps 746 mmHg 95%
    18:00 +1°C° 0.1 mm 4 mps 746 mmHg 96%
    19:00 +1°C° 0.1 mm 4 mps 746 mmHg 96%
    20:00 +1°C° 0 mm 4 mps 746 mmHg 96%
    21:00 +1°C° 0 mm 4 mps 746 mmHg 96%
    22:00 +3°C° 0 mm 4 mps 746 mmHg 96%
    23:00 +1°C° 0 mm 4 mps 746 mmHg 96%

    23 November, Thursday

    Time Temperature Precipitation Wind Pressure Humidity
    00:00 +1°C° 0 mm 4 mps 746 mmHg 95%
    01:00 +1°C° 0 mm 4 mps 746 mmHg 95%
    02:00 +1°C° 0 mm 4 mps 746 mmHg 94%
    03:00 +1°C° 0 mm 5 mps 746 mmHg 94%
    04:00 +1°C° 0 mm 5 mps 746 mmHg 93%
    05:00 +1°C° 0 mm 5 mps 746 mmHg 92%
    06:00 +1°C° 0 mm 5 mps 746 mmHg 91%
    07:00 +1°C° 0 mm 5 mps 746 mmHg 90%
    08:00 +1°C° 0 mm 6 mps 747 mmHg 87%
    09:00 +2°C° 0 mm 6 mps 747 mmHg 84%
    10:00 +3°C° 0 mm 6 mps 747 mmHg 81%
    11:00 +3°C° 0 mm 6 mps 747 mmHg 79%
    12:00 +4°C° 0 mm 6 mps 747 mmHg 77%
    13:00 +4°C° 0 mm 6 mps 747 mmHg 75%
    14:00 +4°C° 0 mm 6 mps 747 mmHg 77%
    15:00 +5°C° 0 mm 5 mps 747 mmHg 78%
    16:00 +3°C° 0 mm 5 mps 748 mmHg 80%
    17:00 +4°C° 0 mm 4 mps 748 mmHg 82%
    18:00 +4°C° 0 mm 4 mps 748 mmHg 84%
    19:00 +4°C° 0 mm 4 mps 749 mmHg 86%
    20:00 +4°C° 0 mm 4 mps 749 mmHg 87%
    21:00 +4°C° 0 mm 4 mps 749 mmHg 88%
    22:00 +4°C° 0 mm 4 mps 750 mmHg 90%
    23:00 +4°C° 0 mm 4 mps 750 mmHg 91%

    24 November, Friday

    Time Temperature Precipitation Wind Pressure Humidity
    00:00 +4°C° 0 mm 4 mps 750 mmHg 92%
    01:00 +4°C° 0 mm 4 mps 750 mmHg 93%
    02:00 +4°C° 0 mm 4 mps 750 mmHg 93%
    03:00 +4°C° 0 mm 4 mps 750 mmHg 94%
    04:00 +4°C° 0 mm 4 mps 751 mmHg 94%
    05:00 +4°C° 0 mm 4 mps 751 mmHg 94%
    06:00 +4°C° 0 mm 4 mps 751 mmHg 94%
    07:00 +4°C° 0 mm 4 mps 751 mmHg 94%
    08:00 +5°C° 0 mm 5 mps 751 mmHg 93%
    09:00 +5°C° 0 mm 5 mps 751 mmHg 91%
    10:00 +6°C° 0 mm 5 mps 751 mmHg 90%
    11:00 +7°C° 0 mm 5 mps 751 mmHg 88%
    12:00 +7°C° 0 mm 5 mps 751 mmHg 86%
    13:00 +8°C° 0 mm 5 mps 751 mmHg 84%
    14:00 +7°C° 0 mm 5 mps 750 mmHg 86%
    15:00 +7°C° 0 mm 5 mps 750 mmHg 88%
    16:00 +5°C° 0 mm 6 mps 750 mmHg 89%
    17:00 +5°C° 0 mm 6 mps 750 mmHg 89%
    18:00 +5°C° 0 mm 6 mps 750 mmHg 89%
    19:00 +5°C° 0 mm 6 mps 750 mmHg 88%
    20:00 +7°C° 0 mm 6 mps 750 mmHg 87%
    21:00 +7°C° 0 mm 6 mps 750 mmHg 85%
    22:00 +7°C° 0 mm 6 mps 750 mmHg 84%
    23:00 +7°C° 0 mm 6 mps 749 mmHg 83%

    25 November, Saturday

    Time Temperature Precipitation Wind Pressure Humidity
    00:00 +7°C° 0 mm 6 mps 749 mmHg 83%
    01:00 +7°C° 0 mm 6 mps 749 mmHg 83%
    02:00 +7°C° 0.1 mm 6 mps 749 mmHg 83%
    03:00 +7°C° 0.1 mm 6 mps 749 mmHg 84%
    04:00 +7°C° 0.1 mm 5 mps 749 mmHg 85%
    05:00 +7°C° 0 mm 6 mps 748 mmHg 84%
    06:00 +5°C° 0 mm 6 mps 748 mmHg 82%
    07:00 +5°C° 0 mm 6 mps 748 mmHg 81%
    08:00 +7°C° 0 mm 6 mps 748 mmHg 78%
    09:00 +7°C° 0 mm 6 mps 748 mmHg 74%
    10:00 +8°C° 0 mm 7 mps 748 mmHg 71%
    11:00 +9°C° 0 mm 7 mps 747 mmHg 68%
    12:00 +9°C° 0 mm 7 mps 747 mmHg 66%
    13:00 +10°C° 0 mm 7 mps 746 mmHg 63%
    14:00 +10°C° 0 mm 7 mps 746 mmHg 64%
    15:00 +9°C° 0 mm 7 mps 746 mmHg 65%
    16:00 +9°C° 0 mm 7 mps 746 mmHg 66%
    17:00 +9°C° 0.3 mm 6 mps 747 mmHg 71%
    18:00 +8°C° 0.3 mm 5 mps 747 mmHg 76%
    19:00 +7°C° 0.3 mm 5 mps 747 mmHg 81%
    20:00 +7°C° 0.4 mm 4 mps 748 mmHg 80%
    21:00 +6°C° 0.4 mm 4 mps 748 mmHg 80%
    22:00 +6°C° 0.4 mm 4 mps 749 mmHg 80%
    23:00 +6°C° 0 mm 4 mps 749 mmHg 80%
    Show more